Meteo pe oră la Bolshie Mihalki

Astăzi, 19 Mai, Miercuri

Timp Temperatura Precipitaţii Vânt Presiune Umiditate
00:00 +9°C° 0 mm 2 m/s 738 mmHg 93%
01:00 +9°C° 0 mm 3 m/s 738 mmHg 93%
02:00 +8°C° 0 mm 3 m/s 738 mmHg 94%
03:00 +8°C° 0 mm 3 m/s 738 mmHg 92%
04:00 +8°C° 0 mm 3 m/s 738 mmHg 91%
05:00 +7°C° 0 mm 4 m/s 738 mmHg 90%
06:00 +8°C° 0 mm 4 m/s 738 mmHg 87%
07:00 +9°C° 0 mm 5 m/s 739 mmHg 83%
08:00 +10°C° 0 mm 5 m/s 739 mmHg 79%
09:00 +12°C° 0 mm 5 m/s 739 mmHg 74%
10:00 +13°C° 0 mm 6 m/s 739 mmHg 69%
11:00 +15°C° 0 mm 6 m/s 740 mmHg 64%
12:00 +15°C° 0.1 mm 6 m/s 740 mmHg 65%
13:00 +15°C° 0.1 mm 6 m/s 740 mmHg 66%
14:00 +15°C° 0.1 mm 6 m/s 740 mmHg 67%
15:00 +15°C° 0.1 mm 6 m/s 740 mmHg 68%
16:00 +14°C° 0.1 mm 5 m/s 741 mmHg 69%
17:00 +14°C° 0.1 mm 5 m/s 741 mmHg 71%
18:00 +13°C° 0 mm 4 m/s 741 mmHg 75%
19:00 +12°C° 0 mm 3 m/s 741 mmHg 80%
20:00 +11°C° 0 mm 3 m/s 742 mmHg 85%
21:00 +10°C° 0 mm 3 m/s 742 mmHg 88%
22:00 +9°C° 0 mm 3 m/s 742 mmHg 91%
23:00 +8°C° 0 mm 3 m/s 742 mmHg 94%

Mâine, 20 Mai, Joi

Timp Temperatura Precipitaţii Vânt Presiune Umiditate
00:00 +8°C° 0 mm 3 m/s 742 mmHg 95%
01:00 +7°C° 0 mm 3 m/s 742 mmHg 96%
02:00 +7°C° 0 mm 3 m/s 742 mmHg 96%
03:00 +7°C° 0 mm 3 m/s 743 mmHg 97%
04:00 +5°C° 0 mm 3 m/s 743 mmHg 97%
05:00 +5°C° 0 mm 3 m/s 743 mmHg 97%
06:00 +8°C° 0 mm 3 m/s 743 mmHg 91%
07:00 +8°C° 0 mm 4 m/s 744 mmHg 85%
08:00 +11°C° 0 mm 4 m/s 744 mmHg 79%
09:00 +12°C° 0 mm 4 m/s 744 mmHg 73%
10:00 +14°C° 0 mm 4 m/s 744 mmHg 66%
11:00 +15°C° 0 mm 4 m/s 744 mmHg 60%
12:00 +17°C° 0 mm 4 m/s 744 mmHg 57%
13:00 +17°C° 0 mm 4 m/s 744 mmHg 54%
14:00 +18°C° 0 mm 4 m/s 744 mmHg 52%
15:00 +18°C° 0 mm 4 m/s 744 mmHg 53%
16:00 +18°C° 0 mm 4 m/s 744 mmHg 54%
17:00 +18°C° 0 mm 4 m/s 744 mmHg 55%
18:00 +15°C° 0 mm 4 m/s 745 mmHg 61%
19:00 +14°C° 0 mm 4 m/s 745 mmHg 66%
20:00 +12°C° 0 mm 4 m/s 745 mmHg 72%
21:00 +11°C° 0 mm 3 m/s 746 mmHg 77%
22:00 +10°C° 0 mm 3 m/s 746 mmHg 81%
23:00 +8°C° 0 mm 2 m/s 746 mmHg 86%

Poimâine, 21 Mai, Vineri

Timp Temperatura Precipitaţii Vânt Presiune Umiditate
00:00 +8°C° 0 mm 2 m/s 747 mmHg 88%
01:00 +7°C° 0 mm 2 m/s 747 mmHg 91%
02:00 +7°C° 0 mm 2 m/s 747 mmHg 93%
03:00 +7°C° 0 mm 2 m/s 747 mmHg 92%
04:00 +6°C° 0 mm 2 m/s 748 mmHg 92%
05:00 +6°C° 0 mm 2 m/s 748 mmHg 92%
06:00 +9°C° 0 mm 1 m/s 748 mmHg 83%
07:00 +11°C° 0 mm 1 m/s 748 mmHg 75%
08:00 +12°C° 0 mm 1 m/s 748 mmHg 66%
09:00 +14°C° 0 mm 1 m/s 748 mmHg 63%
10:00 +15°C° 0 mm 1 m/s 748 mmHg 59%
11:00 +16°C° 0 mm 1 m/s 748 mmHg 55%
12:00 +18°C° 0 mm 1 m/s 748 mmHg 53%
13:00 +18°C° 0 mm 1 m/s 747 mmHg 50%
14:00 +18°C° 0 mm 2 m/s 747 mmHg 48%
15:00 +17°C° 0 mm 2 m/s 747 mmHg 52%
16:00 +17°C° 0 mm 2 m/s 747 mmHg 56%
17:00 +17°C° 0 mm 2 m/s 747 mmHg 60%
18:00 +16°C° 0 mm 2 m/s 747 mmHg 65%
19:00 +14°C° 0 mm 2 m/s 747 mmHg 69%
20:00 +12°C° 0 mm 3 m/s 746 mmHg 74%
21:00 +12°C° 0 mm 3 m/s 746 mmHg 75%
22:00 +11°C° 0 mm 3 m/s 746 mmHg 75%
23:00 +11°C° 0 mm 3 m/s 746 mmHg 76%

22 Mai, Sâmbătă

Timp Temperatura Precipitaţii Vânt Presiune Umiditate
00:00 +11°C° 0 mm 4 m/s 745 mmHg 76%
01:00 +10°C° 0 mm 4 m/s 745 mmHg 76%
02:00 +10°C° 0 mm 4 m/s 745 mmHg 75%
03:00 +10°C° 0 mm 4 m/s 745 mmHg 76%
04:00 +10°C° 0 mm 4 m/s 745 mmHg 76%
05:00 +10°C° 0 mm 4 m/s 745 mmHg 76%
06:00 +12°C° 0 mm 5 m/s 744 mmHg 74%
07:00 +13°C° 0 mm 5 m/s 744 mmHg 73%
08:00 +14°C° 0 mm 6 m/s 744 mmHg 71%
09:00 +16°C° 0 mm 6 m/s 744 mmHg 65%
10:00 +17°C° 0 mm 6 m/s 744 mmHg 60%
11:00 +20°C° 0 mm 6 m/s 744 mmHg 54%
12:00 +20°C° 0 mm 6 m/s 744 mmHg 53%
13:00 +21°C° 0 mm 6 m/s 743 mmHg 51%
14:00 +21°C° 0 mm 7 m/s 743 mmHg 50%
15:00 +21°C° 0 mm 7 m/s 742 mmHg 53%
16:00 +20°C° 0 mm 6 m/s 742 mmHg 57%
17:00 +20°C° 0 mm 6 m/s 742 mmHg 60%
18:00 +19°C° 0.1 mm 6 m/s 741 mmHg 64%
19:00 +17°C° 0.1 mm 6 m/s 741 mmHg 68%
20:00 +16°C° 0.1 mm 6 m/s 740 mmHg 72%
21:00 +15°C° 0.6 mm 6 m/s 740 mmHg 77%
22:00 +14°C° 0.6 mm 5 m/s 740 mmHg 83%
23:00 +13°C° 0.6 mm 5 m/s 740 mmHg 88%

23 Mai, Duminică

Timp Temperatura Precipitaţii Vânt Presiune Umiditate
00:00 +13°C° 1 mm 5 m/s 740 mmHg 91%
01:00 +13°C° 1 mm 5 m/s 739 mmHg 93%
02:00 +12°C° 1 mm 5 m/s 739 mmHg 95%
03:00 +12°C° 0.4 mm 5 m/s 739 mmHg 95%
04:00 +12°C° 0.4 mm 5 m/s 739 mmHg 95%
05:00 +10°C° 0.4 mm 5 m/s 739 mmHg 95%
06:00 +12°C° 0.1 mm 5 m/s 740 mmHg 92%
07:00 +12°C° 0.1 mm 5 m/s 740 mmHg 89%
08:00 +12°C° 0.1 mm 5 m/s 740 mmHg 86%
09:00 +13°C° 0.1 mm 5 m/s 741 mmHg 80%
10:00 +13°C° 0.1 mm 5 m/s 741 mmHg 74%
11:00 +14°C° 0.1 mm 5 m/s 741 mmHg 69%
12:00 +15°C° 0.2 mm 5 m/s 742 mmHg 66%
13:00 +15°C° 0.2 mm 5 m/s 742 mmHg 63%
14:00 +16°C° 0.2 mm 5 m/s 742 mmHg 60%
15:00 +15°C° 0.4 mm 5 m/s 742 mmHg 65%
16:00 +15°C° 0.4 mm 4 m/s 742 mmHg 71%
17:00 +14°C° 0.4 mm 4 m/s 743 mmHg 76%
18:00 +13°C° 0.3 mm 3 m/s 743 mmHg 80%
19:00 +12°C° 0.3 mm 3 m/s 743 mmHg 84%
20:00 +12°C° 0.3 mm 2 m/s 743 mmHg 87%
21:00 +10°C° 0 mm 2 m/s 744 mmHg 89%
22:00 +9°C° 0 mm 2 m/s 744 mmHg 91%
23:00 +9°C° 0 mm 3 m/s 745 mmHg 93%

24 Mai, Luni

Timp Temperatura Precipitaţii Vânt Presiune Umiditate
00:00 +8°C° 0 mm 3 m/s 745 mmHg 94%
01:00 +8°C° 0 mm 3 m/s 745 mmHg 95%
02:00 +7°C° 0 mm 3 m/s 745 mmHg 95%
03:00 +7°C° 0 mm 3 m/s 746 mmHg 95%
04:00 +7°C° 0 mm 3 m/s 746 mmHg 95%
05:00 +6°C° 0 mm 4 m/s 746 mmHg 95%
06:00 +7°C° 0 mm 4 m/s 747 mmHg 90%
07:00 +8°C° 0 mm 5 m/s 747 mmHg 85%
08:00 +9°C° 0 mm 5 m/s 748 mmHg 80%
09:00 +10°C° 0.1 mm 5 m/s 748 mmHg 72%
10:00 +11°C° 0.1 mm 6 m/s 748 mmHg 64%
11:00 +13°C° 0.1 mm 6 m/s 748 mmHg 55%
12:00 +13°C° 0.1 mm 6 m/s 748 mmHg 56%
13:00 +14°C° 0.1 mm 6 m/s 748 mmHg 57%
14:00 +14°C° 0.1 mm 6 m/s 748 mmHg 58%
15:00 +13°C° 0.3 mm 6 m/s 748 mmHg 64%
16:00 +13°C° 0.3 mm 6 m/s 748 mmHg 70%
17:00 +11°C° 0.3 mm 6 m/s 748 mmHg 77%
18:00 +10°C° 0.1 mm 5 m/s 749 mmHg 80%
19:00 +9°C° 0.1 mm 5 m/s 749 mmHg 83%
20:00 +10°C° 0.1 mm 4 m/s 749 mmHg 86%
21:00 +8°C° 0 mm 4 m/s 749 mmHg 89%
22:00 +8°C° 0 mm 3 m/s 749 mmHg 91%
23:00 +7°C° 0 mm 3 m/s 750 mmHg 94%
Arată mai mult

Formular de consimțământ

Meteoprog și furnizorii noștri de servicii pot stoca și accesa date personale, precum cookies, identificatori de dispozitiv sau alte tehnologii similare pe dispozitivul dumneavoastră și procesa astfel de date pentru a personaliza conținutul și reclamele, dar și pentru a oferi caracteristici de social media și pentru a analiza traficul.

  • Stocarea și/sau accesarea informațiilor pe dispozitivul dumneavoastră

    Cookies, identificatori de dispozitiv sau alte informații pot fi stocate sau accesate pe dispozitiv în scopurile indicate mai sus.

  • Reclame și conținut personalizat, evaluarea reclamelor și a conținutului, informații despre audiențe și dezvoltarea produselor

    Reclamele și conținutul pot fi personalizate pe baza unui profil. Pot fi adăugate date suplimentare pentru a personaliza mai bine reclamele și conținutul. Performanța reclamelor și conținutului poate fi măsurată. Pot fi obținute informații despre utilizatorii care au văzut reclamele și conținutul. Aceste date pot fi utilizate pentru a dezvolta sau îmbunătăți experiența utilizatorilor, sistemele și software-ul.

Dând clic pe ‘Sunt de acord’, permiteți utilizarea cookie-urilor menționate, a identificatorilor de dispozitiv, balizelor web sau altor tehnologii similare. Setările pot fi modificate din browser-ul dispozitivului dumneavoastră.

În anumite scopuri, interesele legitime pot prima asupra consimțământului. Puteți citi mai multe informații în acest sens în Politica privind Confidențialitatea Datelor și Cookie.